DELTA 1 DEB, 7039

Orbit data source: Space-Track

DELTA 1 DEB, 7039 is space debris in SSO originally from a launch on Tue, 06 Nov 1973 UTC launched from the Air Force Western Test Range (AFWTR). Debris objects in space refer to the collection of defunct objects orbiting the Earth. Examples of debris include non-operational satellites, rocket bodies, and fragments generated from explosions, collisions, or faulty payload assembly.

Loading next visibility...
Identifier
7039, 1973-086AF
Orbit
SSO
Country
Flag of USUS
Related business
Manufacturer
Unknown
Mission
Spacecraft
Bus & Motor
Unknown
Mass
Unknown
Launch date (UTC)
1973-11-06 (52 years ago)
Launch vehicle
Unknown
Launch site
Air Force Western Test Range (AFWTR)
Object type
Payload
Rocket body
Debris
Shape & HBR
Unknown
Radar Cross Section
Medium (>0.1 m² and <1 m²)

Expand to show TLE details & history
Last TLE update: 12 hours ago

TLE from 12 hours ago
0 DELTA 1 DEB
1 07039U 73086AF  25259.40863777  .00000045  00000-0  59717-3 0  9999
2 07039 102.5265 243.1118 0130532  80.8417  86.7484 12.49560902362910
Epoch: 2025-09-16T09:48Z
TLE epoch observation values (Epoch: 2025-09-16T09:48:26.303Z)
Latitude
10.60815°
Longitude
-77.22396°
Altitude
1,463.654 km
Speed
7.134 km/s
True Right ascension
04h 21m 56s
True Declination
10° 33' 06"
Sunlit
Object was in daylight at epoch
Visualization orbit readout
Latitude
Unknown
Longitude
Unknown
Altitude
Unknown
Speed
Unknown
Apparent Right ascension
Unknown
Apparent Declination
Unknown
Sunlit
N/A
Visualization observer readout
Local Sidereal Time
14:31:54
Azimuth
Unknown
Elevation
Unknown
Doppler factor
Unknown
Orbital elements
Apogee altitude
1,566.29 km
Perigee altitude
1,361.562 km
Semi-major axis
7,842.063 km
Eccentricity
0.01305
Inclination
102.5265°
RAAN
243.1118°
Arg. of periapsis
80.8417°
True anomaly
88.24299°
Mean anomaly
86.7484°
Eccentric anomaly
87.49558°
Mean motion
3.12534 °/min
Orbital period
115.19 mins
BSTAR
0.00059717
Loading maneuver chart data...
Computing Atmospheric mass density...
Loading historical data...
Loading historical data...
Loading historical data...
Loading historical data...
Loading historical data...
Loading historical data...
Loading historical data...

Documentation

Showing up to 5 results
|